Regional Weather Roundup
Issued by NWS

Home | Current Version | Previous Version | Text Only | Print | Product List | Glossary On
Versions: 1 2 3 4 5 6 7 8 9 10 11 12 13 14 15 16 17 18 19 20 21 22 23 24 25 26 27 28 29 30 31 32 33 34 35 36 37 38 39 40 41 42 43 44 45 46 47 48 49 50
000
ASUS44 KOUN 252210
RWROK

WEATHER ROUNDUP FOR OKLAHOMA
NATIONAL WEATHER SERVICE NORMAN OK
500 PM CDT SAT MAR 25 2017

NOTE: "FAIR" INDICATES FEW OR NO CLOUDS BELOW 12,000 FEET WITH NO
      SIGNIFICANT WEATHER AND/OR OBSTRUCTIONS TO VISIBILITY.

OKZ001>007-009>012-014-015-017-252300-
NORTHWEST OKLAHOMA AND THE PANHANDLE

CITY           SKY/WX    TMP DP  RH WIND       PRES   REMARKS
GAGE           SUNNY     70  36  28 VRB6G18   29.88F
GUYMON         SUNNY     67  22  18 VRB7      29.90F
ENID/WOODRING  CLOUDY    57  45  62 NW8G18    29.92F
$$

OKZ016-021>023-033>039-044-045-252300-
SOUTHWEST OKLAHOMA

CITY           SKY/WX    TMP DP  RH WIND       PRES   REMARKS
LAWTON/REGL    MOSUNNY   69  43  38 VRB6G17   29.91F
LAWTON/FT SILL MOSUNNY   69  46  43 CALM      29.90F
FREDERICK      SUNNY     71  41  33 W12G18    29.88F
CLINTON        SUNNY     69  42  37 W12       29.90F
HOBART         SUNNY     71  41  33 NW8       29.90F
ALTUS AFB      SUNNY     73  34  24 NW16      29.89F
$$

OKZ018>020-024>031-252300-
CENTRAL OKLAHOMA

CITY           SKY/WX    TMP DP  RH WIND       PRES   REMARKS
OKLAHOMA CITY  PTSUNNY   59  43  55 NW6       29.93F
OKC/WILEY POST CLOUDY    58  44  60 N6        29.93F
OKC/TINKER AFB CLOUDY    57  42  57 W8        29.91F
STILLWATER     CLOUDY    54  41  61 NW12      29.92F
GUTHRIE        CLOUDY    57  44  62 NW14      29.92F
$$

OKZ008-013-054>072-252300-
NORTHEAST OKLAHOMA

CITY           SKY/WX    TMP DP  RH WIND       PRES   REMARKS
TULSA          CLOUDY    52  44  74 W10       29.91F
TULSA/JONES    CLOUDY    55  43  63 W7        29.91F
PONCA CITY     CLOUDY    50  40  68 NW9       29.93S
BARTLESVILLE   CLOUDY    51  41  68 VRB5      29.93S
MUSKOGEE       CLOUDY    54  44  69 W12       29.94F
$$

OKZ032-040>043-046>053-073>077-252300-
SOUTH CENTRAL/SOUTHEAST OKLAHOMA

CITY           SKY/WX    TMP DP  RH WIND       PRES   REMARKS
ARDMORE/DWNTWN SUNNY     64  41  42 W8        29.93F
MCALESTER      PTSUNNY   61  45  55 NW10      29.92F
$$





USA.gov is the U.S. government's official web portal to all federal, state and local government web resources and services.